SWA3469 KMSP-KMDW

Flight info

Callsign SWA3469
Flight time 1h 4m
Altitude 33000
Route RST1 RST OHHMY ENDEE8
Aircraft B38M/M-SDE1FGHILORVWXY/HB1

Departure

Time 2026-05-03 22:51
Airport Minneapolis–Saint Paul International Airport / Wold–Chamberlain Field (KMSP)

Arrival

Time 2026-05-03 23:56
Airport Chicago Midway International Airport (KMDW)
Time Latitude Longitude Altitude Speed Heading
2026-05-03 22:40 44.88643 -93.21302 847 ft 0 kts 208°
2026-05-03 22:40 44.88645 -93.21300 847 ft 1 kts 209°
2026-05-03 22:40 44.88657 -93.21288 847 ft 2 kts 208°
2026-05-03 22:41 44.88670 -93.21278 847 ft 2 kts 221°
2026-05-03 22:41 44.88680 -93.21263 847 ft 2 kts 228°
2026-05-03 22:41 44.88690 -93.21247 847 ft 2 kts 237°
2026-05-03 22:41 44.88697 -93.21229 847 ft 2 kts 245°
2026-05-03 22:42 44.88701 -93.21217 847 ft 0 kts 251°
2026-05-03 22:42 44.88702 -93.21210 847 ft 0 kts 252°
2026-05-03 22:45 44.88702 -93.21211 847 ft 0 kts 252°
2026-05-03 22:45 44.88701 -93.21217 847 ft 0 kts 256°
2026-05-03 22:46 44.88703 -93.21240 847 ft 5 kts 292°
2026-05-03 22:46 44.88730 -93.21313 847 ft 10 kts 285°
2026-05-03 22:46 44.88696 -93.21410 847 ft 13 kts 224°
2026-05-03 22:46 44.88621 -93.21514 847 ft 16 kts 225°
2026-05-03 22:47 44.88535 -93.21636 847 ft 17 kts 225°
2026-05-03 22:47 44.88450 -93.21755 847 ft 17 kts 224°
2026-05-03 22:47 44.88363 -93.21873 847 ft 17 kts 223°
2026-05-03 22:47 44.88276 -93.21931 847 ft 12 kts 149°
2026-05-03 22:48 44.88223 -93.21829 847 ft 13 kts 122°
2026-05-03 22:48 44.88174 -93.21716 847 ft 14 kts 122°
2026-05-03 22:48 44.88113 -93.21575 847 ft 18 kts 121°
2026-05-03 22:48 44.88037 -93.21400 847 ft 23 kts 121°
2026-05-03 22:49 44.87947 -93.21192 847 ft 26 kts 122°
2026-05-03 22:49 44.87843 -93.20952 847 ft 29 kts 122°
2026-05-03 22:49 44.87732 -93.20696 847 ft 31 kts 122°
2026-05-03 22:49 44.87618 -93.20431 847 ft 32 kts 122°
2026-05-03 22:50 44.87515 -93.20195 847 ft 22 kts 121°
2026-05-03 22:50 44.87442 -93.20080 847 ft 11 kts 179°
2026-05-03 22:50 44.87382 -93.20128 847 ft 9 kts 241°
2026-05-03 22:50 44.87403 -93.20229 847 ft 16 kts 301°
2026-05-03 22:51 44.87604 -93.20695 847 ft 96 kts 301°
2026-05-03 22:51 44.88079 -93.21793 928 ft 155 kts 301°
2026-05-03 22:51 44.88642 -93.23140 1552 ft 167 kts 300°
2026-05-03 22:51 44.89175 -93.24633 2218 ft 179 kts 288°
2026-05-03 22:52 44.89231 -93.26354 2905 ft 181 kts 256°
2026-05-03 22:52 44.88529 -93.27818 3459 ft 191 kts 221°
2026-05-03 22:52 44.87293 -93.28542 4044 ft 200 kts 192°
2026-05-03 22:52 44.85869 -93.28461 4465 ft 219 kts 171°
2026-05-03 22:53 44.84286 -93.27824 4580 ft 258 kts 166°
2026-05-03 22:53 44.82455 -93.27005 4898 ft 285 kts 165°
2026-05-03 22:53 44.80586 -93.26154 5786 ft 288 kts 165°
2026-05-03 22:53 44.78691 -93.25291 6599 ft 294 kts 165°
2026-05-03 22:54 44.76727 -93.24397 7420 ft 299 kts 165°
2026-05-03 22:54 44.74748 -93.23495 8212 ft 304 kts 164°
2026-05-03 22:54 44.72746 -93.22585 9008 ft 308 kts 164°
2026-05-03 22:54 44.70691 -93.21651 9786 ft 313 kts 164°
2026-05-03 22:55 44.68610 -93.20705 10327 ft 326 kts 164°
2026-05-03 22:55 44.66384 -93.19698 10599 ft 348 kts 164°
2026-05-03 22:55 44.64062 -93.18643 11300 ft 354 kts 164°
2026-05-03 22:55 44.61748 -93.17395 12028 ft 360 kts 157°
2026-05-03 22:56 44.59513 -93.15864 12756 ft 365 kts 154°
2026-05-03 22:56 44.57254 -93.14242 13474 ft 369 kts 155°
2026-05-03 22:56 44.54951 -93.12616 14182 ft 374 kts 155°
2026-05-03 22:56 44.52626 -93.10983 14873 ft 378 kts 155°
2026-05-03 22:57 44.50251 -93.09318 15584 ft 381 kts 155°
2026-05-03 22:57 44.47900 -93.07673 16256 ft 385 kts 155°
2026-05-03 22:57 44.45504 -93.05997 16924 ft 388 kts 156°
2026-05-03 22:57 44.43087 -93.04311 17573 ft 391 kts 156°
2026-05-03 22:58 44.40657 -93.02616 18217 ft 395 kts 156°
2026-05-03 22:58 44.38199 -93.00904 18846 ft 398 kts 156°
2026-05-03 22:58 44.35727 -92.99185 19472 ft 400 kts 156°
2026-05-03 22:58 44.33231 -92.97451 20080 ft 403 kts 156°
2026-05-03 22:59 44.30715 -92.95705 20676 ft 406 kts 156°
2026-05-03 22:59 44.28190 -92.93955 21255 ft 409 kts 156°
2026-05-03 22:59 44.25649 -92.92197 21831 ft 411 kts 156°
2026-05-03 22:59 44.23100 -92.90433 22391 ft 413 kts 157°
2026-05-03 23:00 44.20530 -92.88656 22942 ft 416 kts 157°
2026-05-03 23:00 44.17931 -92.86861 23471 ft 418 kts 157°
2026-05-03 23:00 44.15317 -92.85059 23948 ft 422 kts 157°
2026-05-03 23:00 44.12680 -92.83241 24433 ft 425 kts 157°
2026-05-03 23:01 44.10058 -92.81437 24897 ft 428 kts 157°
2026-05-03 23:01 44.07375 -92.79594 25363 ft 431 kts 157°
2026-05-03 23:01 44.04680 -92.77743 25819 ft 434 kts 157°
2026-05-03 23:01 44.01975 -92.75890 26256 ft 437 kts 157°
2026-05-03 23:02 43.99272 -92.74039 26680 ft 440 kts 157°
2026-05-03 23:02 43.96536 -92.72166 27110 ft 443 kts 157°
2026-05-03 23:02 43.93761 -92.70270 27527 ft 445 kts 157°
2026-05-03 23:02 43.90967 -92.68364 27917 ft 449 kts 157°
2026-05-03 23:03 43.88170 -92.66457 28325 ft 451 kts 157°
2026-05-03 23:03 43.85380 -92.64557 28712 ft 454 kts 157°
2026-05-03 23:03 43.82533 -92.62621 29080 ft 457 kts 157°
2026-05-03 23:03 43.79662 -92.60671 29442 ft 459 kts 157°
2026-05-03 23:04 43.76894 -92.58555 29819 ft 464 kts 150°
2026-05-03 23:04 43.74210 -92.56071 30156 ft 469 kts 147°
2026-05-03 23:04 43.71558 -92.53462 30518 ft 471 kts 148°
2026-05-03 23:04 43.68878 -92.50899 30941 ft 471 kts 148°
2026-05-03 23:05 43.66157 -92.48325 31402 ft 470 kts 148°
2026-05-03 23:05 43.63504 -92.45819 31831 ft 469 kts 148°
2026-05-03 23:05 43.60818 -92.43288 32259 ft 469 kts 148°
2026-05-03 23:05 43.58115 -92.40743 32680 ft 468 kts 148°
2026-05-03 23:06 43.55460 -92.38248 32762 ft 472 kts 148°
2026-05-03 23:06 43.49965 -92.33092 32771 ft 481 kts 149°
2026-05-03 23:07 43.44448 -92.27922 32775 ft 481 kts 149°
2026-05-03 23:07 43.38967 -92.22797 32776 ft 481 kts 149°
2026-05-03 23:08 43.33453 -92.17654 32772 ft 480 kts 149°
2026-05-03 23:08 43.27912 -92.12502 32766 ft 480 kts 149°
2026-05-03 23:09 43.22412 -92.07397 32763 ft 481 kts 149°
2026-05-03 23:09 43.16901 -92.02294 32764 ft 480 kts 149°
2026-05-03 23:10 43.11376 -91.97191 32766 ft 480 kts 149°
2026-05-03 23:10 43.05850 -91.92100 32764 ft 481 kts 149°
2026-05-03 23:11 43.00291 -91.86990 32769 ft 485 kts 150°
2026-05-03 23:11 42.94671 -91.81838 32779 ft 493 kts 152°
2026-05-03 23:12 42.88959 -91.76609 32789 ft 499 kts 153°
2026-05-03 23:12 42.83546 -91.70558 32797 ft 510 kts 144°
2026-05-03 23:13 42.78340 -91.64041 32791 ft 507 kts 145°
2026-05-03 23:13 42.73085 -91.57687 32779 ft 508 kts 146°
2026-05-03 23:14 42.67812 -91.51335 32772 ft 509 kts 146°
2026-05-03 23:14 42.62528 -91.44982 32764 ft 506 kts 146°
2026-05-03 23:15 42.57263 -91.38672 32759 ft 506 kts 146°
2026-05-03 23:15 42.52007 -91.32385 32744 ft 505 kts 146°
2026-05-03 23:16 42.46755 -91.26107 32749 ft 506 kts 146°
2026-05-03 23:16 42.44088 -91.22926 32496 ft 510 kts 146°
2026-05-03 23:16 42.41660 -91.19468 31794 ft 524 kts 130°
2026-05-03 23:16 42.39830 -91.15146 31142 ft 526 kts 126°
2026-05-03 23:17 42.37636 -91.11363 30437 ft 507 kts 146°
2026-05-03 23:17 42.34884 -91.08552 29782 ft 493 kts 155°
2026-05-03 23:17 42.32014 -91.06082 29034 ft 491 kts 156°
2026-05-03 23:17 42.29152 -91.03681 28291 ft 491 kts 155°
2026-05-03 23:18 42.26397 -91.00941 27548 ft 496 kts 148°
2026-05-03 23:18 42.23772 -90.97934 26788 ft 492 kts 147°
2026-05-03 23:18 42.21226 -90.94957 26039 ft 485 kts 146°
2026-05-03 23:18 42.18705 -90.92005 25291 ft 478 kts 146°
2026-05-03 23:19 42.16232 -90.89112 24544 ft 470 kts 146°
2026-05-03 23:19 42.13782 -90.86247 23999 ft 457 kts 146°
2026-05-03 23:19 42.11439 -90.83502 23805 ft 436 kts 147°
2026-05-03 23:19 42.09174 -90.80856 23772 ft 430 kts 147°
2026-05-03 23:20 42.06911 -90.78231 23771 ft 435 kts 147°
2026-05-03 23:20 42.04601 -90.75555 23773 ft 440 kts 147°
2026-05-03 23:20 42.02284 -90.72875 23778 ft 443 kts 147°
2026-05-03 23:20 41.99939 -90.70163 23783 ft 445 kts 147°
2026-05-03 23:21 41.97633 -90.67496 23787 ft 443 kts 147°
2026-05-03 23:21 41.95299 -90.64799 23792 ft 443 kts 147°
2026-05-03 23:21 41.92894 -90.62249 23786 ft 434 kts 158°
2026-05-03 23:21 41.90154 -90.60855 23838 ft 415 kts 177°
2026-05-03 23:22 41.84852 -90.57526 23827 ft 445 kts 148°
2026-05-03 23:22 41.82534 -90.54780 23801 ft 447 kts 144°
2026-05-03 23:22 41.80267 -90.51956 23797 ft 446 kts 144°
2026-05-03 23:23 41.77985 -90.49101 23797 ft 447 kts 144°
2026-05-03 23:23 41.75725 -90.46275 23797 ft 447 kts 144°
2026-05-03 23:23 41.73462 -90.43447 23798 ft 447 kts 144°
2026-05-03 23:23 41.71178 -90.40597 23798 ft 447 kts 144°
2026-05-03 23:24 41.68926 -90.37790 23800 ft 447 kts 144°
2026-05-03 23:24 41.66656 -90.34963 23800 ft 447 kts 145°
2026-05-03 23:24 41.64374 -90.32122 23789 ft 447 kts 145°
2026-05-03 23:24 41.62120 -90.29315 23786 ft 446 kts 144°
2026-05-03 23:25 41.59852 -90.26494 23788 ft 446 kts 144°
2026-05-03 23:25 41.57581 -90.23672 23787 ft 446 kts 145°
2026-05-03 23:25 41.55315 -90.20861 23789 ft 446 kts 145°
2026-05-03 23:25 41.53040 -90.18044 23791 ft 446 kts 145°
2026-05-03 23:26 41.50764 -90.15228 23792 ft 446 kts 145°
2026-05-03 23:26 41.48525 -90.12460 23794 ft 445 kts 145°
2026-05-03 23:26 41.46254 -90.09656 23796 ft 446 kts 145°
2026-05-03 23:26 41.43964 -90.06832 23796 ft 447 kts 144°
2026-05-03 23:27 41.41698 -90.04041 23797 ft 447 kts 145°
2026-05-03 23:27 41.39407 -90.01221 23798 ft 446 kts 145°
2026-05-03 23:27 41.37141 -89.98443 23798 ft 446 kts 146°
2026-05-03 23:27 41.34816 -89.95751 23799 ft 444 kts 147°
2026-05-03 23:28 41.32480 -89.93125 23799 ft 443 kts 147°
2026-05-03 23:28 41.30121 -89.90472 23799 ft 443 kts 147°
2026-05-03 23:28 41.27789 -89.87850 23799 ft 443 kts 147°
2026-05-03 23:28 41.25430 -89.85199 23804 ft 443 kts 147°
2026-05-03 23:29 41.23087 -89.82564 23765 ft 442 kts 147°
2026-05-03 23:29 41.20766 -89.79936 23169 ft 438 kts 147°
2026-05-03 23:29 41.18624 -89.77029 22394 ft 445 kts 134°
2026-05-03 23:29 41.16948 -89.73625 21702 ft 447 kts 123°
2026-05-03 23:30 41.15699 -89.69868 20988 ft 449 kts 113°
2026-05-03 23:30 41.14908 -89.65871 20265 ft 449 kts 103°
2026-05-03 23:30 41.14622 -89.61759 19545 ft 448 kts 92°
2026-05-03 23:30 41.14753 -89.57667 18792 ft 446 kts 87°
2026-05-03 23:31 41.14999 -89.53594 17936 ft 445 kts 86°
2026-05-03 23:31 41.15259 -89.49519 17273 ft 437 kts 86°
2026-05-03 23:31 41.15512 -89.45554 16650 ft 430 kts 87°
2026-05-03 23:31 41.15758 -89.41665 15990 ft 424 kts 87°
2026-05-03 23:32 41.16011 -89.37804 15352 ft 418 kts 86°
2026-05-03 23:32 41.16264 -89.34000 14701 ft 413 kts 88°
2026-05-03 23:32 41.16514 -89.30259 14053 ft 407 kts 88°
2026-05-03 23:32 41.16761 -89.26552 13421 ft 401 kts 88°
2026-05-03 23:33 41.17003 -89.22905 12804 ft 395 kts 88°
2026-05-03 23:33 41.17242 -89.19274 12191 ft 389 kts 88°
2026-05-03 23:33 41.17474 -89.15738 11596 ft 383 kts 88°
2026-05-03 23:33 41.17754 -89.12253 11028 ft 379 kts 82°
2026-05-03 23:34 41.18368 -89.08948 10667 ft 368 kts 75°
2026-05-03 23:34 41.19134 -89.05776 10519 ft 354 kts 73°
2026-05-03 23:34 41.19889 -89.02615 10387 ft 371 kts 75°
2026-05-03 23:34 41.20587 -88.99253 10133 ft 373 kts 73°
2026-05-03 23:35 41.21517 -88.96143 10014 ft 357 kts 66°
2026-05-03 23:35 41.22529 -88.93231 9994 ft 336 kts 65°
2026-05-03 23:35 41.23505 -88.90469 10007 ft 327 kts 66°
2026-05-03 23:35 41.24458 -88.87769 10004 ft 326 kts 66°
2026-05-03 23:36 41.25425 -88.85030 10003 ft 326 kts 66°
2026-05-03 23:36 41.26384 -88.82310 10002 ft 325 kts 66°
2026-05-03 23:36 41.27342 -88.79588 10001 ft 324 kts 66°
2026-05-03 23:36 41.28300 -88.76867 10002 ft 325 kts 66°
2026-05-03 23:37 41.29250 -88.74164 10004 ft 325 kts 66°
2026-05-03 23:37 41.30203 -88.71452 10007 ft 325 kts 66°
2026-05-03 23:37 41.31160 -88.68722 10007 ft 325 kts 66°
2026-05-03 23:37 41.32106 -88.66021 10008 ft 325 kts 65°
2026-05-03 23:38 41.33070 -88.63265 10008 ft 325 kts 65°
2026-05-03 23:38 41.34010 -88.60573 9969 ft 325 kts 65°
2026-05-03 23:38 41.34884 -88.57800 9706 ft 320 kts 75°
2026-05-03 23:38 41.35289 -88.54953 9571 ft 312 kts 89°
2026-05-03 23:39 41.35490 -88.52112 9337 ft 310 kts 80°
2026-05-03 23:39 41.35982 -88.49323 9284 ft 308 kts 77°
2026-05-03 23:39 41.36527 -88.46581 9155 ft 307 kts 76°
2026-05-03 23:39 41.37088 -88.43827 9032 ft 306 kts 76°
2026-05-03 23:40 41.37767 -88.41155 8916 ft 306 kts 68°
2026-05-03 23:40 41.38628 -88.38563 8796 ft 306 kts 66°
2026-05-03 23:40 41.39502 -88.36027 8677 ft 305 kts 66°
2026-05-03 23:40 41.40394 -88.33464 8551 ft 304 kts 66°
2026-05-03 23:41 41.41287 -88.30919 8379 ft 304 kts 66°
2026-05-03 23:41 41.42189 -88.28354 8133 ft 302 kts 66°
2026-05-03 23:41 41.43068 -88.25844 7893 ft 299 kts 66°
2026-05-03 23:41 41.43942 -88.23350 7654 ft 297 kts 66°
2026-05-03 23:42 41.44810 -88.20868 7414 ft 295 kts 66°
2026-05-03 23:42 41.45673 -88.18398 7174 ft 293 kts 66°
2026-05-03 23:42 41.46522 -88.15966 6936 ft 291 kts 66°
2026-05-03 23:42 41.47374 -88.13527 6696 ft 289 kts 66°
2026-05-03 23:43 41.48220 -88.11109 6458 ft 287 kts 66°
2026-05-03 23:43 41.49065 -88.08697 6219 ft 286 kts 66°
2026-05-03 23:43 41.49903 -88.06303 5980 ft 284 kts 66°
2026-05-03 23:43 41.50874 -88.03999 5747 ft 283 kts 57°
2026-05-03 23:44 41.51957 -88.01853 5514 ft 282 kts 56°
2026-05-03 23:44 41.53083 -87.99682 5271 ft 281 kts 56°
2026-05-03 23:44 41.54185 -87.97570 5047 ft 279 kts 56°
2026-05-03 23:44 41.55235 -87.95408 4991 ft 270 kts 63°
2026-05-03 23:45 41.56077 -87.93205 4993 ft 269 kts 65°
2026-05-03 23:45 41.56900 -87.90962 4990 ft 266 kts 66°
2026-05-03 23:45 41.57715 -87.88760 4989 ft 266 kts 66°
2026-05-03 23:45 41.58544 -87.86536 4988 ft 266 kts 66°
2026-05-03 23:46 41.59365 -87.84358 4985 ft 264 kts 66°
2026-05-03 23:46 41.60194 -87.82177 4983 ft 263 kts 66°
2026-05-03 23:46 41.61033 -87.79977 4987 ft 264 kts 66°
2026-05-03 23:46 41.61860 -87.77811 4989 ft 265 kts 65°
2026-05-03 23:47 41.62849 -87.75629 5013 ft 285 kts 58°
2026-05-03 23:47 41.63978 -87.73412 4993 ft 293 kts 57°
2026-05-03 23:47 41.65132 -87.71188 4994 ft 293 kts 57°
2026-05-03 23:47 41.66306 -87.68926 4995 ft 293 kts 57°
2026-05-03 23:48 41.67453 -87.66715 4996 ft 293 kts 57°
2026-05-03 23:48 41.68609 -87.64483 4995 ft 290 kts 57°
2026-05-03 23:48 41.69748 -87.62287 4990 ft 279 kts 57°
2026-05-03 23:48 41.70828 -87.60204 4900 ft 270 kts 57°
2026-05-03 23:49 41.71883 -87.58169 4707 ft 263 kts 57°
2026-05-03 23:49 41.72919 -87.56164 4482 ft 258 kts 57°
2026-05-03 23:49 41.73930 -87.54209 4281 ft 252 kts 57°
2026-05-03 23:49 41.74956 -87.52354 4043 ft 247 kts 48°
2026-05-03 23:50 41.76260 -87.50913 4009 ft 245 kts 34°
2026-05-03 23:50 41.77714 -87.49685 3994 ft 248 kts 31°
2026-05-03 23:50 41.79275 -87.48727 3993 ft 245 kts 13°
2026-05-03 23:50 41.80918 -87.48453 4022 ft 236 kts 354°
2026-05-03 23:51 41.82520 -87.48869 3986 ft 232 kts 334°
2026-05-03 23:51 41.83895 -87.49927 4000 ft 227 kts 314°
2026-05-03 23:51 41.84907 -87.51492 3995 ft 218 kts 294°
2026-05-03 23:51 41.85439 -87.53339 3995 ft 211 kts 274°
2026-05-03 23:52 41.85481 -87.55286 3811 ft 207 kts 258°
2026-05-03 23:52 41.85200 -87.57132 3562 ft 198 kts 249°
2026-05-03 23:52 41.84905 -87.58929 3318 ft 200 kts 258°
2026-05-03 23:52 41.84779 -87.60810 3071 ft 201 kts 261°
2026-05-03 23:53 41.84686 -87.62662 2788 ft 199 kts 261°
2026-05-03 23:53 41.84571 -87.64488 2476 ft 191 kts 254°
2026-05-03 23:53 41.84183 -87.66118 2173 ft 178 kts 244°
2026-05-03 23:53 41.83712 -87.67614 1887 ft 166 kts 240°
2026-05-03 23:54 41.83153 -87.68900 1836 ft 158 kts 231°
2026-05-03 23:54 41.82487 -87.69997 1673 ft 146 kts 225°
2026-05-03 23:54 41.81815 -87.70957 1434 ft 136 kts 221°
2026-05-03 23:54 41.81140 -87.71827 1196 ft 134 kts 219°
2026-05-03 23:55 41.80488 -87.72668 1036 ft 129 kts 220°
2026-05-03 23:55 41.79819 -87.73518 885 ft 133 kts 219°
2026-05-03 23:55 41.79151 -87.74367 672 ft 134 kts 220°
2026-05-03 23:55 41.78510 -87.75178 627 ft 95 kts 221°
2026-05-03 23:56 41.78248 -87.75498 627 ft 22 kts 207°
2026-05-03 23:56 41.78142 -87.75539 627 ft 9 kts 193°
2026-05-03 23:56 41.78114 -87.75545 627 ft 0 kts 178°
2026-05-03 23:56 41.78096 -87.75530 627 ft 7 kts 121°
2026-05-03 23:57 41.78139 -87.75447 627 ft 15 kts 44°
2026-05-03 23:57 41.78234 -87.75326 627 ft 20 kts 43°
2026-05-03 23:57 41.78339 -87.75193 627 ft 21 kts 43°
2026-05-03 23:57 41.78447 -87.75056 627 ft 20 kts 43°
2026-05-03 23:58 41.78547 -87.74931 627 ft 19 kts 44°
2026-05-03 23:58 41.78646 -87.74807 627 ft 18 kts 34°
2026-05-03 23:58 41.78746 -87.74721 627 ft 15 kts 43°
2026-05-03 23:58 41.78815 -87.74628 627 ft 10 kts 51°
2026-05-03 23:59 41.78827 -87.74570 627 ft 4 kts 112°
2026-05-03 23:59 41.78812 -87.74541 627 ft 3 kts 130°
2026-05-03 23:59 41.78796 -87.74518 627 ft 3 kts 133°
2026-05-03 23:59 41.78780 -87.74496 627 ft 1 kts 133°
2026-05-04 00:00 41.78780 -87.74495 627 ft 0 kts 133°